Location: Équennes
(49.7375°N, 1.9622°E)
Time: 00:50:54
(UTC+00:00)

NOSS 2-1 (E) - Pass Details

Date: 28 January 2023
Orbit: 404 x 1772 km, 63.3° (Epoch: 28 March)

Event Time Altitude Azimuth Distance (km) Brightness Sun altitude
Rises 17:59:37 0° 317° (NW) 2,661 7.2 -12.9°
Reaches altitude 10° 18:01:31 10° 319° (NW) 1,887 6.4 -13.2°
Maximum altitude 18:05:43 81° 47° (NE) 722 3.8 -13.8°
Drops below altitude 10° 18:11:40 10° 135° (SE) 2,638 6.4 -14.8°
Sets 18:14:43 0° 137° (SE) 3,823 7.3 -15.3°
